Temperature
19 18 19 19 19 19 19 19 19 19 19 19 19 19 19 19 19 18 18 18 18 18 18 18 18 18 18 18 18 18 18 18 18 18 18 18 18 18 18 18 18 17 18
19 18 19 19 19 19 19 19 19 19 19 19 19 19 19 19 18 18 18 18 18 18 18 18 18 18 18 18 18 18 18 18 18 18 18 18 18 18 18 18 17 17 18
19 18 18 19 19 19 19 19 19 19 19 19 18 19 19 18 18 18 18 18 18 18 18 18 18 18 18 18 18 18 18 18 18 18 18 17 17 18 18 18 18 18 18
19 18 18 19 19 19 19 19 19 19 19 19 18 19 19 18 18 18 18 18 18 18 18 18 18 18 18 18 18 18 18 18 18 18 17 17 17 18 18 18 18 17 17
19 18 18 19 19 19 19 19 19 19 19 18 18 18 18 18 18 18 18 18 18 18 18 18 18 18 18 18 18 18 18 18 18 17 17 17 17 18 18 18 17 17 17
19 19 18 18 18 19 19 19 18 18 19 18 18 18 18 18 18 18 18 18 18 18 18 18 18 18 18 18 18 18 18 18 17 17 17 17 17 18 18 18 18 17 17
19 19 18 18 18 18 18 18 19 19 18 18 18 18 18 18 18 18 18 18 18 18 18 18 18 18 18 18 18 18 18 17 17 17 17 17 17 17 18 17 17 17 17
19 19 18 18 18 18 18 18 19 19 18 18 18 18 18 18 18 18 18 18 18 18 18 18 18 18 18 18 18 18 18 17 17 17 17 17 17 17 17 17 17 17 17
19 19 19 18 18 18 18 18 18 18 18 18 18 18 18 18 18 18 18 18 18 18 18 18 18 18 18 18 18 18 18 18 17 17 17 17 17 17 17 17 17 17 17
19 19 19 18 18 18 18 18 18 18 18 18 18 18 18 18 18 18 18 18 18 18 18 18 18 18 18 18 18 18 18 18 18 18 17 17 17 17 17 17 17 17 17
19 19 19 19 19 18 18 18 18 18 18 18 18 18 18 18 18 18 18 18 18 18 18 18 18 18 18 18 18 18 18 18 18 18 17 18 18 18 17 17 17 17 17
19 19 19 18 19 18 18 18 18 18 18 18 18 18 18 18 18 18 18 18 18 18 18 18 18 18 18 18 18 18 18 18 18 18 17 18 18 18 18 17 17 17 17
19 19 19 18 18 18 18 18 18 18 17 18 17 18 18 18 17 17 18 18 18 18 17 17 17 17 17 17 18 18 18 18 18 18 17 18 18 18 17 17 17 17 17
19 19 19 18 18 18 18 18 18 18 18 18 17 17 17 17 17 17 17 17 17 17 17 17 17 17 17 17 17 18 18 18 18 18 18 18 18 18 17 17 17 17 17
19 19 18 18 18 18 18 18 18 18 18 18 17 17 17 17 17 17 17 17 17 17 18 17 17 17 17 17 18 18 18 18 18 18 18 18 18 18 18 17 17 17 17
19 19 18 18 18 18 18 18 17 18 18 18 17 17 17 17 17 17 17 17 17 17 17 17 17 17 17 17 17 17 17 18 17 17 17 18 18 18 18 18 17 17 17
19 19 18 18 18 18 18 18 18 18 18 18 17 17 17 17 17 17 17 17 17 17 17 17 17 17 17 18 17 17 18 17 17 17 17 17 17 17 18 18 17 17 17
19 19 18 18 18 18 18 18 18 18 18 18 17 17 17 17 17 17 17 17 17 17 17 17 17 18 17 18 18 18 18 18 17 17 17 17 17 17 17 17 17 17 17
19 19 18 18 18 18 18 18 18 18 18 18 17 17 17 17 17 17 17 17 17 17 17 18 18 17 17 17 18 18 18 18 18 17 17 17 17 17 17 17 17 17 17
19 19 18 18 18 18 18 18 18 18 18 18 18 18 17 17 17 17 17 17 18 18 18 18 17 17 17 17 18 18 18 18 18 18 18 18 17 17 17 17 17 17 17
19 19 19 19 18 18 18 18 18 18 18 18 18 18 18 17 18 18 18 17 18 18 18 17 17 17 17 17 18 18 18 18 18 18 17 17 17 17 17 17 17 17 17
19 19 19 19 19 19 18 18 18 18 18 18 18 18 18 18 18 18 18 18 18 18 17 17 17 17 17 17 18 18 19 18 18 18 17 17 17 17 17 17 17 17 16
20 19 19 19 19 19 19 18 18 18 18 18 18 18 18 18 18 18 18 18 18 18 18 17 17 17 17 17 17 18 19 19 18 18 17 17 17 17 17 17 16 16 16
20 20 20 20 19 19 19 18 18 18 18 18 18 18 18 18 18 18 18 18 18 18 17 17 17 17 17 17 17 17 17 17 18 18 18 17 17 17 17 17 17 16 16
21 20 20 20 20 20 19 19 18 18 18 18 18 18 18 18 18 18 18 18 18 18 18 17 17 17 17 17 17 17 17 17 17 18 18 17 17 17 17 16 16 16 16
21 21 20 20 20 20 19 19 19 19 18 18 18 18 18 18 18 18 18 18 18 18 17 17 17 17 17 17 17 17 17 17 17 18 18 17 17 17 16 16 16 16 16
Wind_Speed
4 4 5 4 4 4 4 5 6 6 6 5 6 7 8 9 9 10 11 11 12 13 13 13 13 14 13 13 13 13 13 14 14 14 13 13 13 12 12 11 10 10 12
4 5 5 5 5 5 5 6 6 7 7 7 7 7 8 8 8 10 10 11 11 12 12 12 13 13 13 13 13 13 13 13 13 13 13 13 12 11 10 9 6 9 11
5 5 6 7 6 6 6 7 7 7 8 8 8 8 7 7 8 10 10 10 10 11 11 11 12 12 12 12 13 13 12 12 12 12 12 11 12 11 10 9 8 9 10
5 6 8 8 8 8 7 7 8 8 8 8 9 8 8 8 9 10 10 10 10 11 11 11 11 11 11 12 12 12 12 12 12 11 9 9 10 11 10 10 10 10 10
6 7 9 8 8 8 8 9 9 9 9 9 9 9 8 9 10 10 10 10 10 10 10 10 10 10 10 11 12 12 12 12 11 9 7 7 8 11 10 10 10 10 10
7 8 10 9 9 9 9 9 9 10 10 10 9 9 9 9 10 10 10 10 9 9 9 9 9 9 9 10 11 11 11 11 10 8 7 7 7 10 10 10 10 10 9
7 8 9 10 9 10 10 10 10 10 10 10 9 9 9 9 9 9 9 9 9 9 9 9 9 9 9 9 11 10 10 9 6 5 6 6 7 11 10 10 10 10 9
7 8 9 10 10 10 11 10 10 10 10 10 10 9 10 10 10 10 9 9 8 8 8 9 9 9 9 9 9 9 9 7 7 6 5 6 10 10 9 9 10 10 9
7 7 7 8 9 10 12 11 11 11 11 10 10 10 10 10 11 10 10 9 8 7 8 9 9 9 8 8 8 8 8 5 4 5 5 6 11 9 8 8 9 9 8
7 7 7 8 7 8 10 12 11 11 11 10 10 10 9 10 11 10 10 10 9 9 9 9 8 8 8 8 8 7 7 5 5 5 5 8 11 9 7 7 7 7 8
6 6 6 7 7 8 9 10 9 10 10 8 9 8 5 7 9 9 11 11 10 9 9 8 8 7 7 8 8 6 6 4 6 4 5 10 10 8 7 6 6 6 6
6 6 6 7 6 7 7 6 6 8 8 8 8 7 7 7 7 8 11 9 9 9 8 8 7 6 5 6 8 7 4 4 4 5 7 10 9 7 6 6 6 6 6
5 5 6 7 6 6 5 5 5 6 6 7 8 7 7 6 6 6 6 7 7 7 6 7 5 4 4 4 3 3 3 2 3 4 7 9 8 6 5 5 5 5 5
5 5 5 6 6 5 5 5 4 5 4 5 7 7 6 5 5 6 4 5 5 5 5 4 4 4 4 3 3 3 3 2 3 3 6 8 7 6 5 5 5 5 5
4 4 4 4 5 5 4 3 4 4 4 5 5 6 5 4 5 5 4 4 4 5 4 3 3 3 2 2 2 2 2 2 2 2 5 8 6 5 5 5 5 5 5
4 4 4 4 5 4 3 3 3 4 4 4 5 6 5 5 5 4 4 4 4 4 4 3 3 2 1 2 2 2 1 1 2 2 2 6 7 6 5 4 4 5 5
4 5 4 4 4 3 3 2 3 3 4 3 4 5 4 4 4 3 4 3 4 4 4 3 3 2 1 1 2 1 1 1 1 1 1 1 4 7 6 5 5 5 5
4 5 4 3 4 3 3 2 2 3 3 3 3 4 4 4 3 2 3 3 3 2 2 2 2 1 2 1 1 1 0 1 1 1 1 1 1 2 5 6 5 5 5
5 5 4 3 3 3 3 2 2 2 2 2 3 3 3 3 3 2 2 3 2 2 2 2 2 1 1 1 1 1 0 0 0 1 1 2 2 2 2 5 7 6 5
6 5 4 4 3 3 2 2 2 2 2 1 2 2 2 2 2 1 1 2 2 2 2 2 2 2 1 1 1 2 1 1 0 1 2 2 2 2 2 2 3 5 7
6 6 5 4 4 3 2 2 2 2 1 1 2 2 1 1 2 1 2 1 1 2 2 1 1 1 0 0 0 0 0 0 0 0 1 1 1 1 1 2 2 2 3
8 7 6 6 5 4 3 2 1 1 1 1 1 2 1 1 1 1 1 1 1 1 1 1 1 1 1 1 2 2 1 1 1 0 1 1 1 1 1 2 1 2 3
8 8 6 6 6 5 4 3 3 2 2 2 2 1 1 1 1 1 1 2 2 2 2 2 2 2 2 1 2 3 2 2 1 1 1 1 1 2 2 1 2 1 2
9 8 7 7 7 6 6 5 4 3 2 1 1 1 1 0 1 1 1 1 2 2 2 2 2 2 3 2 1 1 2 2 3 2 2 1 2 2 3 3 2 1 1
10 9 8 8 7 7 6 6 5 4 3 2 2 2 1 0 0 1 1 1 2 2 2 3 3 3 3 3 2 2 1 2 3 3 2 2 2 2 2 2 2 2 1
9 9 8 8 8 8 8 7 6 5 4 3 2 2 2 1 1 0 1 1 2 2 2 2 3 2 3 3 3 2 2 2 2 3 3 3 2 2 2 2 2 2 1
Wind_Direction
40 45 48 26 36 51 58 70 80 88 96 100 105 118 125 124 127 129 128 128 128 130 134 136 135 133 135 137 135 132 132 135 136 134 134 134 134 136 140 148 156 141 133
43 58 62 37 53 65 74 78 82 89 93 92 97 110 123 125 130 132 130 127 127 130 133 135 133 131 134 137 137 136 137 137 138 138 140 141 140 140 146 157 154 130 140
53 64 74 58 62 73 72 72 79 87 94 96 97 101 109 119 131 131 128 127 126 129 132 135 134 133 135 136 137 138 137 139 141 148 158 148 143 148 152 155 145 142 145
65 68 66 64 67 71 72 76 80 85 92 98 101 98 98 112 126 129 128 127 127 128 131 133 133 133 134 134 134 136 139 143 149 164 162 146 145 146 154 155 151 152 152
70 70 73 66 69 68 70 75 78 84 90 93 96 95 93 107 119 124 124 125 125 127 129 129 129 129 133 134 133 135 140 144 156 172 152 149 143 144 153 153 154 153 153
74 74 75 64 67 69 72 72 76 81 85 88 91 93 94 100 110 117 118 119 123 127 129 126 125 123 126 135 139 140 144 154 172 161 150 150 140 146 155 155 154 153 154
75 75 80 69 67 69 71 72 74 80 82 85 86 89 95 100 107 113 112 115 123 128 130 129 125 116 115 128 138 143 151 169 176 154 154 144 131 141 153 157 155 156 158
74 76 84 87 76 75 74 74 76 77 77 80 83 85 92 100 107 109 112 115 116 122 125 123 120 116 114 120 132 143 154 174 166 152 148 140 126 137 150 157 158 159 163
73 74 79 86 90 90 82 75 75 74 75 76 80 86 92 99 103 106 109 112 112 114 118 119 119 120 126 129 134 138 146 167 159 140 142 134 131 140 147 154 159 164 170
76 76 79 79 78 86 89 82 78 75 73 74 77 81 92 106 107 110 110 104 107 111 115 121 122 120 127 130 132 136 145 169 147 139 135 129 134 146 150 153 159 173 179
79 77 74 76 78 79 80 85 88 85 75 79 82 82 89 90 97 108 91 94 99 103 107 114 123 126 133 139 139 147 168 165 136 130 126 123 140 149 153 159 167 177 182
82 79 76 73 73 80 76 79 74 75 72 66 64 64 69 71 75 86 101 97 98 101 108 107 120 140 163 135 144 167 160 143 137 132 125 134 147 153 156 164 176 183 190
91 87 83 82 65 63 72 74 70 71 70 70 65 68 70 70 79 81 90 103 101 104 98 106 117 104 97 94 95 114 112 120 120 122 124 140 154 163 168 174 182 191 197
94 88 80 79 77 61 56 68 76 78 76 73 69 61 69 68 62 65 65 70 81 85 79 78 86 85 85 97 103 102 110 124 117 117 119 137 153 166 180 191 193 199 206
108 95 88 77 75 72 66 55 71 71 74 80 72 67 61 68 63 61 55 55 62 74 85 76 75 83 92 117 120 113 110 114 116 126 122 137 157 177 194 208 210 213 218
125 113 98 92 89 81 77 69 72 81 81 72 75 70 60 63 61 56 65 57 54 58 58 63 73 78 85 92 105 113 124 114 113 129 129 141 159 177 193 208 218 224 228
135 123 121 112 99 96 91 83 88 88 86 81 83 84 73 72 70 63 65 61 53 56 66 67 65 72 106 109 104 110 124 103 101 141 180 171 160 172 186 199 212 220 229
146 140 135 125 115 109 97 81 83 76 85 86 87 89 81 72 70 58 58 56 51 52 53 61 66 51 65 61 60 31 72 142 183 192 196 191 199 175 175 185 198 211 224
159 156 155 141 132 123 116 116 104 98 90 90 90 85 83 81 73 61 50 43 31 37 30 12 57 26 56 46 67 100 5 317 205 205 210 200 185 209 206 171 190 209 224
168 167 170 164 156 151 144 134 124 109 107 108 100 82 74 85 77 40 73 45 18 24 14 21 19 26 21 28 26 40 16 347 298 236 231 210 202 213 229 250 212 203 206
177 178 183 181 171 178 169 166 148 141 135 122 118 96 91 75 73 60 35 43 358 20 0 349 359 54 60 359 267 189 185 162 71 256 260 263 215 224 251 281 281 286 202
186 186 186 187 185 189 174 174 164 154 154 124 103 99 90 87 63 96 26 359 24 22 12 354 327 318 310 291 293 279 257 195 165 186 229 240 279 257 237 243 281 279 286
189 191 193 192 189 195 184 184 172 175 190 166 158 151 150 106 69 18 3 356 344 344 8 331 309 298 302 300 313 303 307 334 312 207 251 267 287 290 278 273 257 270 265
191 190 193 194 193 192 193 202 206 205 191 170 193 129 160 91 22 6 351 343 325 335 335 309 347 303 290 297 297 303 316 316 293 277 241 260 274 270 285 288 289 263 266
190 190 189 190 192 193 198 202 213 217 205 197 195 158 233 181 286 339 328 324 308 312 336 329 326 312 305 306 305 297 285 257 266 281 294 297 273 270 271 266 273 282 286
190 191 189 186 191 194 200 206 216 218 216 220 219 202 226 201 194 131 312 316 301 318 316 312 312 313 319 313 304 298 285 291 287 285 284 280 293 296 292 295 279 268 269
Height
1516 1514 1511 1510 1509 1508 1507 1507 1507 1507 1507 1507 1508 1508 1509 1510 1511 1512 1512 1513 1514 1515 1517 1519 1521 1524 1525 1527 1529 1530 1532 1533 1535 1536 1537 1539 1540 1542 1544 1545 1547 1549 1549
1517 1514 1512 1511 1510 1509 1509 1508 1508 1508 1508 1508 1508 1509 1509 1511 1512 1513 1514 1515 1516 1517 1519 1521 1523 1524 1526 1528 1529 1530 1532 1534 1535 1537 1538 1540 1541 1543 1544 1546 1548 1549 1550
1518 1516 1514 1512 1511 1511 1510 1510 1509 1509 1509 1510 1510 1511 1511 1511 1512 1514 1515 1516 1517 1518 1520 1522 1524 1525 1527 1528 1529 1531 1533 1534 1536 1538 1539 1541 1542 1543 1544 1545 1547 1549 1550
1519 1518 1516 1514 1514 1513 1512 1512 1511 1511 1511 1511 1512 1512 1512 1511 1512 1514 1516 1518 1519 1520 1522 1523 1524 1525 1527 1528 1529 1531 1533 1535 1536 1538 1540 1542 1543 1542 1544 1545 1547 1549 1550
1521 1520 1518 1517 1516 1515 1515 1514 1514 1513 1513 1513 1514 1513 1513 1513 1514 1515 1517 1519 1520 1521 1523 1524 1525 1525 1526 1527 1528 1531 1533 1535 1537 1539 1541 1542 1542 1542 1544 1545 1547 1549 1550
1523 1522 1520 1519 1519 1518 1517 1516 1516 1516 1516 1516 1516 1515 1516 1515 1516 1517 1519 1520 1521 1523 1524 1525 1526 1526 1524 1524 1527 1531 1533 1536 1538 1540 1541 1542 1542 1542 1544 1545 1547 1549 1550
1526 1525 1523 1522 1521 1520 1520 1519 1518 1518 1518 1518 1518 1518 1518 1519 1519 1520 1521 1522 1523 1524 1525 1526 1527 1526 1525 1524 1528 1531 1534 1536 1539 1541 1542 1543 1543 1543 1544 1545 1547 1549 1551
1528 1527 1526 1524 1524 1523 1522 1522 1521 1521 1521 1521 1520 1520 1520 1521 1522 1523 1524 1525 1525 1526 1526 1527 1527 1528 1528 1529 1530 1533 1535 1537 1540 1541 1542 1543 1543 1543 1545 1546 1548 1550 1551
1530 1530 1529 1528 1527 1526 1525 1524 1524 1524 1523 1523 1523 1523 1523 1523 1524 1525 1526 1527 1527 1527 1528 1529 1529 1530 1531 1532 1533 1535 1537 1538 1541 1542 1544 1544 1544 1544 1545 1547 1548 1550 1551
1532 1532 1532 1531 1530 1530 1529 1527 1527 1526 1526 1526 1526 1526 1526 1527 1527 1528 1529 1529 1530 1530 1531 1531 1532 1533 1534 1534 1535 1537 1538 1539 1542 1543 1544 1545 1544 1545 1546 1547 1548 1549 1551
1534 1534 1534 1533 1533 1533 1532 1531 1530 1529 1529 1529 1529 1528 1529 1530 1531 1532 1532 1532 1532 1532 1533 1533 1534 1535 1535 1536 1537 1539 1540 1542 1544 1545 1545 1545 1545 1545 1546 1547 1548 1549 1550
1536 1536 1536 1535 1535 1535 1535 1534 1534 1534 1532 1532 1531 1531 1532 1532 1533 1534 1534 1534 1534 1535 1535 1535 1535 1537 1538 1540 1541 1541 1543 1544 1545 1545 1545 1545 1545 1546 1546 1547 1548 1549 1549
1538 1538 1537 1537 1537 1537 1537 1537 1536 1536 1535 1535 1534 1534 1534 1535 1536 1537 1537 1537 1537 1537 1538 1538 1539 1540 1541 1542 1543 1543 1544 1545 1545 1546 1546 1546 1546 1547 1547 1547 1548 1548 1549
1539 1539 1539 1539 1538 1538 1538 1539 1539 1538 1538 1538 1537 1537 1537 1538 1538 1538 1539 1539 1540 1540 1540 1541 1541 1541 1542 1543 1544 1544 1545 1546 1546 1547 1546 1546 1546 1547 1547 1547 1547 1548 1548
1540 1541 1541 1540 1540 1540 1539 1540 1541 1541 1541 1540 1540 1540 1540 1540 1540 1541 1540 1541 1542 1542 1542 1542 1543 1543 1543 1544 1545 1545 1546 1546 1546 1547 1546 1546 1546 1546 1546 1546 1547 1547 1547
1542 1542 1542 1542 1541 1541 1541 1541 1542 1542 1542 1543 1543 1542 1542 1543 1542 1542 1543 1543 1543 1544 1544 1544 1544 1544 1545 1545 1545 1546 1546 1546 1546 1546 1547 1546 1545 1546 1546 1546 1546 1545 1545
1543 1543 1543 1543 1543 1543 1543 1543 1544 1544 1545 1545 1545 1544 1544 1545 1544 1544 1545 1545 1545 1545 1545 1545 1545 1545 1545 1546 1546 1546 1546 1546 1546 1546 1546 1546 1546 1545 1545 1545 1545 1544 1544
1543 1543 1544 1544 1544 1544 1544 1544 1546 1546 1546 1546 1546 1546 1546 1546 1546 1546 1546 1546 1546 1546 1546 1546 1546 1546 1546 1546 1546 1545 1545 1545 1545 1545 1545 1545 1545 1545 1544 1544 1543 1543 1543
1543 1543 1544 1545 1545 1545 1546 1546 1546 1546 1547 1548 1548 1548 1547 1547 1547 1547 1547 1547 1547 1547 1547 1547 1547 1546 1546 1546 1545 1545 1545 1545 1544 1544 1544 1544 1544 1544 1544 1543 1542 1542 1541
1543 1543 1544 1545 1545 1546 1547 1547 1547 1548 1548 1548 1549 1548 1548 1549 1548 1548 1548 1547 1548 1548 1547 1547 1546 1546 1545 1545 1545 1545 1544 1544 1544 1543 1543 1543 1543 1542 1542 1542 1541 1541 1540
1542 1543 1544 1545 1545 1546 1547 1548 1548 1549 1549 1549 1549 1549 1549 1549 1549 1549 1549 1548 1548 1548 1547 1547 1546 1546 1546 1545 1545 1545 1544 1543 1542 1542 1542 1542 1542 1541 1540 1540 1540 1539 1539
1541 1542 1543 1544 1545 1546 1547 1547 1548 1549 1549 1550 1550 1549 1549 1549 1549 1550 1549 1549 1548 1548 1547 1546 1546 1546 1546 1545 1545 1544 1544 1544 1542 1541 1541 1540 1540 1540 1539 1539 1538 1537 1537
1540 1541 1543 1543 1544 1545 1546 1548 1548 1548 1549 1550 1550 1550 1550 1550 1550 1549 1549 1549 1548 1548 1547 1546 1546 1545 1545 1545 1544 1544 1543 1542 1542 1541 1540 1539 1539 1538 1538 1537 1536 1536 1535
1538 1539 1541 1542 1543 1544 1545 1547 1548 1549 1549 1550 1550 1550 1550 1550 1549 1549 1549 1548 1548 1548 1547 1546 1546 1545 1544 1544 1543 1542 1542 1541 1541 1540 1540 1539 1538 1537 1536 1536 1535 1534 1533
1536 1538 1539 1540 1542 1543 1544 1545 1546 1548 1549 1549 1549 1549 1549 1549 1549 1549 1548 1547 1547 1547 1546 1545 1544 1544 1544 1543 1543 1542 1541 1540 1540 1539 1538 1538 1537 1536 1535 1534 1533 1533 1532
1534 1536 1537 1538 1540 1541 1543 1544 1545 1546 1547 1548 1548 1549 1549 1549 1548 1548 1547 1546 1546 1545 1545 1544 1543 1543 1542 1541 1541 1541 1540 1540 1539 1538 1537 1536 1535 1535 1533 1533 1532 1531 1530